Regional Weather Roundup
Issued by NWS

Home | Current Version | Previous Version | Text Only | Print | Product List | Glossary Off
Versions: 1 2 3 4 5 6 7 8 9 10 11 12 13 14 15 16 17 18 19 20 21 22 23 24 25 26 27 28 29 30 31 32 33 34 35 36 37 38 39 40 41 42 43 44 45 46 47 48 49 50

000
ASUS43 KDTX 271110
RWRMI
MICHIGAN HOURLY REGIONAL WEATHER ROUNDUP
NATIONAL WEATHER SERVICE DETROIT/PONTIAC MI
600 AM EST TUE JAN 27 2015

NOTE: "FAIR" INDICATES FEW OR NO CLOUDS BELOW 12,000 FEET WITH NO
SIGNIFICANT WEATHER AND/OR OBSTRUCTION TO VISIBILITY.

MIZ047>049-052>055-059>063-066>070-074>076-081>083-271200-
SOUTHEAST LOWER MICHIGAN

CITY           SKY/WX    TMP DP  RH WIND       PRES   REMARKS
ADRIAN         CLOUDY    16  11  80 NE7       30.01R WCI   6
ALMA           CLOUDY    14  11  87 N3        30.05R
ANN ARBOR      CLEAR     11   7  84 N5        30.01R WCI   3
BAD AXE        FLURRIES   1  -1  88 CALM      30.04R
CARO           CLEAR      4   0  86 CALM      30.03S
DETROIT CITY   CLEAR     14   7  73 N3        30.02R
DETROIT        MOCLDY    12   8  84 N5        30.03R WCI   4
FLINT          CLEAR     10   5  80 CALM      30.03R
GROSSE ILE     CLEAR     10   7  85 N3        30.01R
HILLSDALE      CLOUDY    17  12  80 CALM      29.97R
HOWELL         CLEAR      9   7  92 CALM      30.00S

CITY           SKY/WX    TMP DP  RH WIND       PRES   REMARKS
JACKSON        CLOUDY    15  11  83 NE6       30.00R WCI   6
LAMBERTVILLE   PTCLDY     9   5  85 CALM      30.01R
LANSING        MOCLDY    15  10  80 N5        30.03R WCI   8
LAPEER         FAIR       2  -1  86 CALM      30.03R
MASON          CLOUDY    14  10  85 CALM      30.01S
MONROE         CLEAR     10   9  92 N5        30.00R WCI   2
MT. CLEMENS    CLEAR      9   5  85 N7        30.00R WCI  -2
PONTIAC        CLEAR      7   3  84 N3        29.99R
PORT HOPE        N/A     21  12  68 NE18      30.03R WCI   6
PORT HURON     FLURRIES   9   7  92 CALM      30.02R
TRI CITIES     PTCLDY    15   8  73 N6        30.06R WCI   6
TROY           CLEAR     14   9  79 NW3       30.04R
SAGINAW HB     CLEAR     12   9  85 NW3       30.05R
$$
MIZ043>046-050>051-056>058-064>065-071>073-077>080-271200-
SOUTHWEST LOWER MICHIGAN

CITY           SKY/WX    TMP DP  RH WIND       PRES   REMARKS
BATTLE CREEK   CLOUDY    20  11  68 NE5       30.01R WCI  13
BENTON HARBOR  CLOUDY    21  11  65 CALM      30.02R
BIG RAPIDS     MOCLDY    18  12  77 NE3       30.04R
COLDWATER      CLOUDY    18  12  77 CALM      30.00R
FREMONT        CLOUDY    18   9  65 NE3       30.05R
HOLLAND        CLOUDY    21  12  68 NE7       30.04R WCI  12
GRAND RAPIDS   CLOUDY    18  11  74 NE6       30.04R WCI  10
IONIA          CLOUDY    18  13  84 NE6       30.03R WCI   9
KALAMAZOO      CLOUDY    19  11  70 NE6       30.01R WCI  11
LUDINGTON      PTCLDY    16   9  75 CALM      30.08R
MARSHALL       CLOUDY    17  11  79 CALM      30.00R
MOUNT PLEASANT MOCLDY    15   9  79 CALM      30.05R
MUSKEGON       CLOUDY    20  11  68 E8        30.06R WCI  10
SOUTH HAVEN    CLOUDY    22  12  65 NE5       30.03R WCI  16
$$
MIZ016>042-271200-
NORTHERN LOWER MICHIGAN

CITY           SKY/WX    TMP DP  RH WIND       PRES   REMARKS
ALPENA         MOCLDY    14   9  80 NE8       30.10R WCI   3
BEAVER ISLAND  MOCLDY    13   8  83 CALM      30.13R
BELLAIRE       CLEAR     11   8  87 CALM      30.11R
CADILLAC       PTCLDY    13   9  82 NE3       30.01S
CHARLEVOIX     CLEAR     15  12  85 E6        30.13R WCI   7
FRANKFORT      CLEAR     11   8  88 CALM      30.09R
GAYLORD        CLOUDY    15  12  88 NE7       30.04R WCI   5
GRAYLING       MOCLDY    13  10  89 CALM      30.05R
HARBOR SPRINGS FLURRIES  16  12  85 NE7       30.11R WCI   6
HOUGHTON LAKE  MOCLDY    14   8  77 N3        30.04R
MANISTEE       CLEAR     16   9  73 E3        30.08R
OSCODA         FLURRIES  15  13  90 NW7       30.06R WCI   5
PELLSTON       PTCLDY    11   8  88 N5        30.12R WCI   3
ROGERS CITY    MOCLDY    15  11  84 E7        30.13R WCI   6
TRAVERSE CITY  PTCLDY    13   9  84 CALM      30.08R
$$
MIZ007>008-015-271200-
EASTERN UPPER MICHIGAN

CITY           SKY/WX    TMP DP  RH WIND       PRES   REMARKS
KINROSS        PTCLDY     7   0  72 E5        30.14R WCI  -2
MACKINAC ISLAN PTCLDY    11   6  79 NE12      30.12S WCI  -3
NEWBERRY       CLEAR      3  -1  83 NE3       30.13R
S. S. MARIE    PTCLDY     6  -2  69 NE3       30.16R
MUNISING         N/A     11   5  77 VRB3      30.14R
$$
MIZ004>006-011>014-085-271200-
CENTRAL UPPER MICHIGAN

CITY           SKY/WX    TMP DP  RH WIND       PRES   REMARKS
MANISTIQUE     PTCLDY     8   5  87 NE5       30.12R WCI   0
ESCANABA       CLOUDY    19  18  93 NE7       30.10R WCI  10
MENOMINEE      CLOUDY    19  18  93 CALM      30.10R
SAWYER-GWINN   LGT SNOW  14  12  91 CALM      30.08R
$$
MIZ001>003-009>011-084-271200-
WESTERN UPPER MICHIGAN

CITY           SKY/WX    TMP DP  RH WIND       PRES   REMARKS
IRON MOUNTAIN  CLOUDY    18  15  88 CALM      30.07R
HOUGHTON       CLOUDY    18  13  80 CALM      30.07R
COPPER HARBOR    N/A     24  18  77 SW3       30.12R
IRONWOOD       CLOUDY    19  18  93 CALM      30.03R
$$

ABBREVIATIONS USED IN REMARKS
   TC - TEMPERATURE IN CELSIUS
  WCI - WIND CHILL INDEX
   HX - HEAT INDEX
  VSB - VISIBILITY




USA.gov is the U.S. government's official web portal to all federal, state and local government web resources and services.